Fairbanks, AK

2:45 AM AKST on February 22, 2017 (GMT -0900)
Fairbanks International

Weather History for PAFA - October, 2013

Change the Weather History Date:

Thursday, October 24, 2013

  Actual Average Record
Temperature  
Mean Temperature 29 °F 17 °F  
Max Temperature 37 °F 25 °F 56 °F (1938)
Min Temperature 21 °F 10 °F -22 °F (1935)
Degree Days  
Heating Degree Days 36 48  
Month to date heating degree days 656 907  
Since 1 July heating degree days 1545 1901  
Cooling Degree Days 0 0  
Month to date cooling degree days 0 0  
Year to date cooling degree days 226 61  
Moisture  
Dew Point 21 °F    
Average Humidity 73    
Maximum Humidity 89    
Minimum Humidity 37    
Precipitation  
Precipitation 0.00 in 0.03 in 0.20 in (1919)
Month to date precipitation 0.30 0.67  
Year to date precipitation 7.84 9.34  
Snow  
Snow 0.00 in 0.40 in 3.90 in (1955)
Month to date snowfall 0.1 7.8  
Since 1 July snowfall 0.8 9.6  
Since 1 September snowfall 0.8 9.6  
Snow Depth 0.00 in    
Sea Level Pressure  
Sea Level Pressure 29.86 in    
Wind  
Wind Speed 5 mph (NE)    
Max Wind Speed 10 mph    
Max Gust Speed -    
Visibility 10 miles    
Events Snow    
T = Trace of Precipitation, MM = Missing Value Source: NWS Daily Summary

Daily Weather History Graph

Daily Weather History Graph

Search for Another Location

Airport or City:

Trip Planner

Search our weather history database for the weather conditions in past years. The results will help you decide how hot, cold, wet, or windy it might be!

Date:

Astronomy

Oct. 24, 2013 Rise Set
Actual Time 9:13 AM AKDT 5:55 PM AKDT
Civil Twilight 8:21 AM AKDT 6:48 PM AKDT
Nautical Twilight 7:24 AM AKDT 7:45 PM AKDT
Astronomical Twilight 6:27 AM AKDT 8:41 PM AKDT
Moon 9:36 PM AKDT (10/24) 3:17 PM AKDT (10/24)
Length of Visible Light 10h 26m
Length of Day
8h 41m
Waning Gibbous, 70% of the Moon is Illuminated
Oct 24
Waning Gibbous
Oct 26
Last Quarter
Nov 3
New
Nov 9
First Quarter
Nov 17
Full

Hourly Weather History & Observations

Time (AKDT) Temp. Windchill Dew Point Humidity Pressure Visibility Wind Dir Wind Speed Gust Speed Precip Events Conditions
12:53 AM 27.0 °F - 24.1 °F 89% 29.97 in 10.0 mi Calm Calm - N/A Snow Light Snow
1:53 AM 28.0 °F 24.2 °F 24.1 °F 85% 29.99 in 8.0 mi ENE 3.5 mph - N/A Snow Light Snow
2:53 AM 28.9 °F 23.9 °F 24.1 °F 82% 29.99 in 8.0 mi ENE 4.6 mph - N/A Snow Light Snow
3:53 AM 28.0 °F 21.7 °F 24.1 °F 85% 29.99 in 8.0 mi ENE 5.8 mph - N/A Snow Light Snow
4:53 AM 28.0 °F 21.7 °F 24.1 °F 85% 29.98 in 8.0 mi ENE 5.8 mph - N/A Snow Light Snow
5:53 AM 27.0 °F 18.0 °F 23.0 °F 85% 29.98 in 9.0 mi ENE 9.2 mph - N/A Snow Light Snow
6:53 AM 26.1 °F 16.2 °F 21.9 °F 84% 29.97 in 10.0 mi East 10.4 mph - N/A   Overcast
7:53 AM 25.0 °F 15.5 °F 19.9 °F 81% 29.97 in 10.0 mi NE 9.2 mph - N/A   Mostly Cloudy
8:53 AM 21.9 °F 15.7 °F 18.0 °F 85% 29.96 in 10.0 mi NE 4.6 mph - N/A   Scattered Clouds
9:53 AM 21.9 °F 15.7 °F 19.0 °F 89% 29.94 in 10.0 mi East 4.6 mph - N/A   Mostly Cloudy
10:53 AM 24.1 °F 15.2 °F 18.0 °F 77% 29.91 in 10.0 mi ENE 8.1 mph - N/A   Mostly Cloudy
11:53 AM 25.0 °F 19.3 °F 19.0 °F 78% 29.90 in 10.0 mi NNE 4.6 mph - N/A   Mostly Cloudy
12:53 PM 27.0 °F 19.5 °F 19.9 °F 75% 29.88 in 10.0 mi NNE 6.9 mph - N/A   Mostly Cloudy
1:53 PM 28.0 °F 24.2 °F 21.0 °F 75% 29.82 in 10.0 mi NE 3.5 mph - N/A   Mostly Cloudy
2:53 PM 30.0 °F 25.2 °F 21.0 °F 69% 29.80 in 10.0 mi NNE 4.6 mph - N/A   Mostly Cloudy
3:53 PM 30.9 °F 25.2 °F 21.9 °F 69% 29.78 in 10.0 mi NNE 5.8 mph - N/A   Overcast
4:53 PM 30.9 °F 24.3 °F 21.9 °F 69% 29.76 in 10.0 mi NNE 6.9 mph - N/A   Overcast
5:53 PM 33.1 °F 27.7 °F 21.9 °F 64% 29.73 in 10.0 mi NNE 5.8 mph - N/A   Mostly Cloudy
6:53 PM 33.1 °F 27.7 °F 21.0 °F 61% 29.71 in 10.0 mi NE 5.8 mph - N/A   Mostly Cloudy
7:53 PM 34.0 °F 28.0 °F 19.9 °F 56% 29.71 in 10.0 mi NE 6.9 mph - N/A   Mostly Cloudy
8:53 PM 32.0 °F 25.6 °F 19.0 °F 59% 29.71 in 10.0 mi North 6.9 mph - N/A   Mostly Cloudy
9:53 PM 37.0 °F 31.0 °F 19.9 °F 50% 29.70 in 10.0 mi North 8.1 mph - N/A   Mostly Cloudy
10:53 PM 32.0 °F 25.6 °F 21.0 °F 64% 29.70 in 10.0 mi North 6.9 mph - N/A   Mostly Cloudy
11:53 PM 30.9 °F 26.2 °F 21.0 °F 67% 29.71 in 10.0 mi NNE 4.6 mph - N/A   Mostly Cloudy